CW2654 Weather Reports


Display with metric or nautical units.
time (UTC)temp
F
wind
direction
speed
MPH
gust
MPH
rain 1hr
in
rain 24hr
in
rain mn
in
humidity
%
barometer
mb
20260904094605 47 0 0.0 0.0 0.00 0.20 0.00 99 1010.8
20260904093111 47 0 0.0 0.0 0.00 0.20 0.00 99 1010.7
20260904091601 47 0 0.0 0.0 0.00 0.20 0.00 98 1010.6
20260904090100 48 0 0.0 0.0 0.00 0.20 0.00 98 1010.4
20260904084604 48 0 0.0 0.0 0.00 0.21 0.00 98 1010.6
20260904083105 48 0 0.0 0.0 0.00 0.21 0.00 98 1010.6
20260904081601 49 0 0.0 0.0 0.00 0.21 0.00 98 1010.5
20260904080059 49 0 0.0 0.0 0.00 0.21 0.00 99 1010.5
20260904074606 50 0 0.0 0.0 0.00 0.25 0.00 99 1010.5
20260904073103 50 0 0.0 0.0 0.01 0.25 0.00 99 1010.5
20260904071602 50 0 0.0 0.0 0.01 0.25 0.00 99 1010.5
20260904070106 50 0 0.0 0.0 0.01 0.25 0.00 99 1010.5
20260904064606 50 0 0.0 0.0 0.01 0.26 0.25 99 1010.6
20260904063121 50 0 0.0 0.0 0.00 0.25 0.24 99 1010.7
20260904061600 50 0 0.0 1.0 0.00 0.25 0.24 99 1010.7
20260904060104 50 0 0.0 1.0 0.00 0.25 0.24 99 1010.6
20260904054558 50 0 0.0 0.0 0.00 0.25 0.24 99 1010.7
20260904053104 50 0 0.0 1.0 0.00 0.25 0.24 98 1010.6
20260904051608 50 0 0.0 0.0 0.00 0.25 0.24 98 1010.6
20260904050100 50 0 0.0 0.0 0.00 0.25 0.24 98 1010.6
20260904044608 51 0 0.0 0.0 0.00 0.26 0.24 98 1010.5
20260904043103 51 0 0.0 1.0 0.00 0.26 0.24 98 1010.6
20260904041608 51 0 0.0 0.0 0.00 0.26 0.24 98 1010.7
20260904040110 51 0 0.0 2.0 0.00 0.26 0.24 98 1010.7
20260904034603 52 0 0.0 0.0 0.00 0.29 0.24 97 1010.6
20260904033102 52 0 0.0 0.0 0.00 0.29 0.24 97 1010.3
20260904031612 53 0 0.0 3.0 0.00 0.29 0.24 97 1010.1
20260904030101 53 0 0.0 2.0 0.00 0.29 0.24 97 1010.2
20260904024606 54 0 0.0 0.0 0.00 0.29 0.24 97 1010.0
20260904023104 55 0 0.0 0.0 0.00 0.29 0.24 97 1009.9
20260904021608 55 0 0.0 0.0 0.00 0.29 0.24 97 1010.0
20260904020105 55 0 0.0 0.0 0.00 0.29 0.24 97 1010.1
20260904014624 55 0 0.0 0.0 0.00 0.33 0.24 98 1010.1
20260904013101 55 0 0.0 1.0 0.00 0.33 0.24 97 1010.2
20260904011603 55 228 0.0 1.0 0.01 0.33 0.24 97 1010.2
20260904010101 55 0 0.0 0.0 0.01 0.33 0.24 97 1010.2
20260904004557 55 0 0.0 0.0 0.06 0.58 0.24 97 1010.4
20260904003104 55 0 0.0 0.0 0.07 0.58 0.24 96 1010.4
20260904001602 55 0 0.0 2.0 0.06 0.58 0.23 96 1010.4
20260904000120 55 229 1.0 9.0 0.06 0.58 0.23 94 1010.4
20260903234558 57 262 4.0 15.0 0.00 0.52 0.17 92 1010.7
20260903233105 57 360 1.0 3.0 0.00 0.52 0.17 90 1010.1
20260903231600 58 360 0.0 3.0 0.00 0.52 0.17 93 1010.0
20260903230105 57 9 1.0 4.0 0.00 0.52 0.17 92 1010.2
20260903224627 57 0 0.0 2.0 0.01 0.55 0.17 91 1010.3
20260903223104 56 0 0.0 2.0 0.02 0.55 0.17 95 1010.5
20260903221559 56 0 1.0 4.0 0.02 0.55 0.17 96 1010.4
20260903220107 55 0 1.0 4.0 0.02 0.55 0.17 94 1010.4
20260903214613 56 143 4.0 9.0 0.01 0.57 0.16 86 1010.7
20260903213114 57 150 2.0 11.0 0.00 0.56 0.15 89 1010.8
20260903211610 57 125 1.0 5.0 0.00 0.56 0.15 91 1010.7
20260903210125 57 120 1.0 6.0 0.00 0.56 0.15 96 1010.7
20260903204606 56 0 0.0 3.0 0.01 0.74 0.15 97 1010.6
20260903203113 55 202 1.0 6.0 0.03 0.74 0.15 98 1010.8
20260903201600 54 100 2.0 9.0 0.05 0.74 0.15 97 1011.0
20260903200104 55 99 2.0 7.0 0.05 0.74 0.15 95 1010.6
20260903194602 55 0 2.0 7.0 0.04 0.82 0.14 92 1011.0
20260903193100 57 228 1.0 9.0 0.02 0.80 0.12 93 1010.9
20260903191603 57 0 0.0 3.0 0.00 0.78 0.10 93 1010.5
20260903190104 57 344 1.0 3.0 0.00 0.78 0.10 95 1010.4
20260903184559 57 0 0.0 3.0 0.00 0.88 0.10 96 1010.3
20260903183106 56 330 0.0 3.0 0.00 0.88 0.10 97 1010.6
20260903181609 56 330 2.0 4.0 0.00 0.88 0.10 98 1010.5
20260903180104 55 360 2.0 4.0 0.00 0.88 0.10 99 1010.4
20260903174601 55 0 0.0 0.0 0.01 0.91 0.10 99 1010.6
20260903173058 54 0 0.0 2.0 0.01 0.91 0.10 99 1010.7
20260903171614 53 0 0.0 1.0 0.01 0.91 0.10 99 1010.8
20260903170059 53 0 0.0 0.0 0.02 0.91 0.10 99 1010.6
20260903164614 52 0 0.0 0.0 0.01 0.90 0.09 99 1010.5
20260903163105 52 0 0.0 0.0 0.01 0.90 0.09 99 1010.8
20260903161602 51 0 0.0 1.0 0.02 0.90 0.09 98 1010.9
20260903160129 51 119 1.0 4.0 0.02 0.89 0.08 98 1010.9
20260903154611 51 113 1.0 4.0 0.02 0.89 0.08 98 1010.9
20260903153108 51 0 0.0 0.0 0.02 0.89 0.08 98 1010.9
20260903151603 51 0 0.0 0.0 0.01 0.88 0.07 97 1010.8
20260903150108 51 0 0.0 3.0 0.00 0.87 0.06 97 1010.7
20260903144606 51 117 2.0 7.0 0.00 0.87 0.06 96 1010.5
20260903143110 51 84 5.0 14.0 0.00 0.87 0.06 95 1010.4
20260903141605 51 122 5.0 10.0 0.00 0.87 0.06 96 1010.4
20260903140109 50 116 2.0 6.0 0.00 0.87 0.06 98 1010.2
20260903134600 50 96 3.0 10.0 0.00 0.87 0.06 98 1010.0
20260903133108 50 107 1.0 6.0 0.00 0.87 0.06 98 1010.2
20260903131604 50 109 2.0 8.0 0.00 0.87 0.06 99 1010.0
20260903130105 49 118 2.0 4.0 0.00 0.87 0.06 98 1010.1
20260903124607 49 100 2.0 6.0 0.00 0.87 0.06 98 1010.0
20260903123102 49 107 2.0 7.0 0.00 0.87 0.06 98 1010.1
20260903121606 49 105 2.0 4.0 0.00 0.87 0.06 98 1010.2
20260903120106 50 132 3.0 7.0 0.00 0.87 0.06 98 1010.2
20260903114605 50 149 3.0 11.0 0.00 0.87 0.06 98 1010.3
20260903113057 50 119 4.0 9.0 0.00 0.87 0.06 99 1010.3
20260903111604 50 111 4.0 12.0 0.00 0.87 0.06 99 1010.3
20260903110104 50 102 4.0 9.0 0.00 0.87 0.06 99 1010.2
20260903104604 50 96 3.0 9.0 0.00 0.87 0.06 99 1010.4
20260903103102 50 87 1.0 11.0 0.00 0.87 0.06 99 1010.3
20260903101611 50 108 1.0 7.0 0.01 0.87 0.06 99 1010.1
20260903100104 51 0 2.0 8.0 0.01 0.87 0.06 99 1010.1